LiveATC.Net - Listen to live air traffic control over the Internet!


ICAO: CYAV  IATA: YAV   Airport: Winnipeg St. Andrews Airport
City: Winnipeg   State/Province: Manitoba
Country: Canada   Continent: North America
CYWG METAR Weather: CYWG 151923Z 18014KT 15SM -SN DRSN BKN029 BKN075 M15/M19 A2980 RMK SC6AC1 SLP118
CYAV Flight Activity (FlightAware)

CYAV CTAF/Center
Feed Status: UP   Listeners: 0
Listen in your browser - HTML5 player (in browser, HTML5)
Click here to listen with your own player (launches your MP3 player)
Archive Access: CYAV CTAF/Center
FacilityFrequency
St. Andrews Ground121.800
St. Andrews Tower118.500
Winnipeg Center118.000
Winnipeg Center121.000

NOTICE

Unauthorized use prohibited. See LiveATC.net Terms of Service


Airport/ARTCC Code
Frequency Search
(e.g., 124.400, 128.75)
Site-wide search
 


Browse Feeds
Top 50 Feeds
Coverage Map
Bad Weather Areas

LiveATC FAQ
Offer LiveATC feed
Contact LiveATC.net
Press Inquiries

LiveATC on iPhone
LiveATC on Android

Windows Phone
Windows 8/10

LiveATC Mobile
(Mobile browser)

ATC Audio Archives
Interesting Recordings

LiveATC Forums


Home Page
About LiveATC.net
Make a Donation
Terms of Use
Privacy Policy

Canadian Air Freqs

AIRMETs/SIGMETs

FAA Airport Status
Nat'l Airspace Status
Arrival Demand Charts


Server Software By:
Icecast.org
Liquidsoap